Date,TemperatureHighF,TemperatureAvgF,TemperatureLowF,DewpointHighF,DewpointAvgF,DewpointLowF,HumidityHigh,HumidityAvg,HumidityLow,PressureMaxIn,PressureMinIn,WindSpeedMaxMPH,WindSpeedAvgMPH,GustSpeedMaxMPH,PrecipitationSumIn
2013-7-1,88,80,70,37,28,23,29,16,10,0.00,0.00,3,0,3,0.00
2013-7-2,81,74,64,41,28,19,43,20,12,0.00,0.00,4,1,4,0.00
2013-7-3,76,68,62,23,19,16,20,15,13,0.00,0.00,5,2,6,0.00
2013-7-9,84,76,68,25,22,18,17,13,11,0.00,0.00,5,1,6,0.00
2013-7-10,72,66,59,44,27,16,56,25,14,0.00,0.00,8,1,9,0.00
2013-7-11,72,64,56,27,21,15,31,21,14,0.00,0.00,5,2,5,0.00
2013-7-12,70,62,57,25,21,15,29,21,14,0.00,0.00,6,0,6,0.00
2013-7-13,76,67,53,44,25,17,71,25,13,0.00,0.00,4,1,4,0.00
2013-7-14,82,71,55,32,23,19,41,17,12,0.00,0.00,4,1,4,0.00
2013-7-15,79,71,60,27,22,16,28,16,12,0.00,0.00,8,2,8,0.00
2013-7-16,85,76,66,24,21,18,18,13,11,0.00,0.00,5,2,5,0.00
2013-7-17,75,67,60,44,31,21,53,28,13,0.00,0.00,8,2,8,0.00
2013-7-18,78,68,58,42,32,20,56,30,13,0.00,0.00,4,0,4,0.00
2013-7-19,80,69,60,49,33,20,67,31,12,0.00,0.00,3,0,3,0.00
2013-7-20,76,67,60,48,35,24,65,34,15,0.00,0.00,5,1,5,0.00
2013-7-21,75,66,59,49,35,23,69,36,16,0.00,0.00,5,1,5,0.00
2013-7-22,78,67,60,48,35,20,66,37,13,0.00,0.00,5,1,5,0.00
2013-7-23,85,74,61,45,28,19,54,22,11,0.00,0.00,4,1,4,0.00
2013-7-24,84,75,60,39,26,19,45,18,11,0.00,0.00,4,1,4,0.00
2013-7-25,84,74,58,34,23,17,40,16,11,0.00,0.00,4,1,4,0.00
2013-7-26,85,74,58,34,24,19,40,17,11,0.00,0.00,6,1,6,0.00
2013-7-27,77,70,56,38,22,12,50,18,13,0.00,0.00,4,1,4,0.00
2013-7-28,70,62,55,44,31,22,63,33,17,0.00,0.00,7,2,7,0.00
2013-7-29,74,64,55,38,29,19,48,29,13,0.00,0.00,4,0,4,0.00
2013-7-30,77,67,57,42,30,20,57,29,13,0.00,0.00,6,1,6,0.00
2013-7-31,71,65,60,51,39,30,73,41,22,0.00,0.00,4,0,4,0.00